User: anonymous   Login
Location: Unspecified
(0.0000°N, 0.0000°E)
Time: 16:00:46
(UTC+00:00)
Language:

MERIDIAN 3 - Orbit

View from above orbital plane
View from above orbital plane
View from above satellite
View from above satellite

Ground track
Ground track

The orbit data is extracted from the following two-line orbital elements,

1 37212U 10058A   18260.62989708  .00000050  00000-0  10000-3 0  9994
2 37212  63.5178  18.2345 7019291 274.1633 194.6135  2.00611787 57693
Epoch (UTC): 17 September 2018 15:07:03
Eccentricity: 0.7019291
inclination: 63.5178°
perigee height: 1537 km
apogee height: 38818 km
right ascension of ascending node: 18.2345°
argument of perigee: 274.1633°
revolutions per day: 2.00611787
mean anomaly at epoch: 194.6135°
orbit number at epoch: 5769

The dashed part of the orbit path shows where the satellite is in the earth's shadow,  

DLR